Location: Ahausen
(50.4985°N, 8.2722°E)
Time: 10:22:10
(UTC+00:00)

Abrixas rocket - Pass Details

Date: 18 September 2020
Orbit: 328 x 335 km, 48.4° (Epoch: 25 October)

Event Time Altitude Azimuth Distance (km) Brightness Sun altitude
Rises 17:50:18 0° 235° (SW) 2,094 6.6 -3.5°
Reaches altitude 10° 17:52:25 10° 225° (SW) 1,257 5.2 -3.9°
Maximum altitude 17:54:56 30° 160° (SSE) 621 2.9 -4.3°
Drops below altitude 10° 17:57:27 10° 96° (E) 1,255 4.0 -4.7°
Enters shadow 17:58:10 - 91° (E) 1,529 4.4 -4.8°
